Weather History for Marshfield, MA

Change the Weather History Date:

Wednesday, February 13, 2013

  Actual Average (KPYM) Record (KPYM)
Temperature  
Mean Temperature 36 °F -  
Max Temperature 42 °F 37 °F 66 °F (1951)
Min Temperature 30 °F 15 °F -14 °F (1979)
Degree Days  
Heating Degree Days 29    
Moisture  
Dew Point 26 °F    
Average Humidity 72    
Maximum Humidity 93    
Minimum Humidity 49    
Precipitation  
Precipitation 0.00 in - - ()
Sea Level Pressure  
Sea Level Pressure 29.82 in    
Wind  
Wind Speed 4 mph (WSW)    
Max Wind Speed 10 mph    
Max Gust Speed -    
Visibility 10 miles    
Events      
Averages and records for this station are not official NWS values.
T = Trace of Precipitation, MM = Missing Value Source: NWS Daily Summary

Daily Weather History Graph

Daily Weather History Graph

Search for Another Location

Airport:

Trip Planner

Search our weather history database for the weather conditions in past years. The results will help you decide how hot, cold, wet, or windy it might be!

Date:

Astronomy

Feb. 13, 2013 Rise Set
Actual Time 6:41 AM EST 5:13 PM EST
Civil Twilight 6:12 AM EST 5:42 PM EST
Nautical Twilight 5:39 AM EST 6:14 PM EST
Astronomical Twilight 5:07 AM EST 6:47 PM EST
Moon 8:04 AM EST (2/13) 9:18 PM EST (2/13)
Length of Visible Light 11h 29m
Length of Day
10h 32m
Waxing Crescent, 13% of the Moon is Illuminated
Feb 13
Waxing Crescent
Feb 17
First Quarter
Feb 25
Full
Mar 4
Last Quarter
Mar 11
New

Hourly Weather History & Observations

Time (EST) Temp. Windchill Dew Point Humidity Pressure Visibility Wind Dir Wind Speed Gust Speed Precip Events Conditions
12:35 AM 33.8 °F 30.8 °F 26.6 °F 75% 29.86 in 10.0 mi SW 3.5 mph - N/A   Clear
12:55 AM 33.8 °F 30.8 °F 26.6 °F 75% 29.85 in 10.0 mi West 3.5 mph - N/A   Clear
1:15 AM 33.8 °F 30.8 °F 26.6 °F 75% 29.85 in 10.0 mi West 3.5 mph - N/A   Clear
1:35 AM 32.0 °F - 26.6 °F 80% 29.85 in 10.0 mi Calm Calm - N/A   Clear
1:55 AM 32.0 °F 27.5 °F 26.6 °F 80% 29.84 in 10.0 mi SSW 4.6 mph - N/A   Clear
2:15 AM 32.0 °F 28.7 °F 26.6 °F 80% 29.84 in 10.0 mi SW 3.5 mph - N/A   Clear
2:35 AM 32.0 °F 28.7 °F 26.6 °F 80% 29.85 in 10.0 mi SW 3.5 mph - N/A   Clear
2:55 AM 32.0 °F 27.5 °F 26.6 °F 80% 29.86 in 10.0 mi SW 4.6 mph - N/A   Clear
3:15 AM 32.0 °F 28.7 °F 26.6 °F 80% 29.86 in 10.0 mi SW 3.5 mph - N/A   Clear
3:35 AM 32.0 °F 26.4 °F 24.8 °F 75% 29.87 in 10.0 mi WSW 5.8 mph - N/A   Clear
3:55 AM 32.0 °F 27.5 °F 24.8 °F 75% 29.87 in 10.0 mi WSW 4.6 mph - N/A   Clear
4:15 AM 32.0 °F 27.5 °F 23.0 °F 69% 29.88 in 10.0 mi WSW 4.6 mph - N/A   Mostly Cloudy
4:35 AM 32.0 °F 27.5 °F 23.0 °F 69% 29.88 in 10.0 mi WSW 4.6 mph - N/A   Overcast
4:55 AM 33.8 °F 29.6 °F 23.0 °F 65% 29.88 in 10.0 mi WSW 4.6 mph - N/A   Overcast
5:15 AM 32.0 °F 26.4 °F 23.0 °F 69% 29.88 in 10.0 mi WSW 5.8 mph - N/A   Mostly Cloudy
5:35 AM 32.0 °F 28.7 °F 23.0 °F 69% 29.88 in 10.0 mi WSW 3.5 mph - N/A   Partly Cloudy
5:55 AM 32.0 °F 28.7 °F 23.0 °F 69% 29.88 in 10.0 mi WSW 3.5 mph - N/A   Clear
6:15 AM 32.0 °F 28.7 °F 23.0 °F 69% 29.88 in 10.0 mi WSW 3.5 mph - N/A   Clear
6:55 AM 30.2 °F 26.7 °F 23.0 °F 75% 29.88 in 10.0 mi West 3.5 mph - N/A   Clear
7:15 AM 32.0 °F 28.7 °F 23.0 °F 69% 29.88 in 10.0 mi West 3.5 mph - N/A   Clear
7:35 AM 32.0 °F 28.7 °F 23.0 °F 69% 29.88 in 10.0 mi WSW 3.5 mph - N/A   Clear
7:55 AM 33.8 °F 29.6 °F 23.0 °F 65% 29.88 in 10.0 mi West 4.6 mph - N/A   Clear
8:15 AM 33.8 °F 28.6 °F 23.0 °F 65% 29.88 in 10.0 mi West 5.8 mph - N/A   Clear
8:35 AM 35.6 °F 31.7 °F 24.8 °F 65% 29.89 in 10.0 mi West 4.6 mph - N/A   Clear
8:55 AM 37.4 °F 32.8 °F 24.8 °F 60% 29.89 in 10.0 mi WSW 5.8 mph - N/A   Clear
9:15 AM 37.4 °F 33.8 °F 24.8 °F 60% 29.89 in 10.0 mi WNW 4.6 mph - N/A   Clear
9:35 AM 37.4 °F 32.1 °F 24.8 °F 60% 29.88 in 10.0 mi West 6.9 mph - N/A   Clear
9:55 AM 39.2 °F 35.9 °F 24.8 °F 56% 29.87 in 10.0 mi NNW 4.6 mph - N/A   Clear
10:15 AM 39.2 °F 37.0 °F 24.8 °F 56% 29.86 in 10.0 mi NW 3.5 mph - N/A   Clear
10:35 AM 39.2 °F 35.9 °F 23.0 °F 52% 29.86 in 10.0 mi NNW 4.6 mph - N/A   Clear
10:55 AM 39.2 °F 35.0 °F 24.8 °F 56% 29.85 in 10.0 mi NNW 5.8 mph - N/A   Clear
11:15 AM 39.2 °F 35.9 °F 24.8 °F 56% 29.84 in 10.0 mi North 4.6 mph - N/A   Clear
11:55 AM 41.0 °F 39.0 °F 24.8 °F 53% 29.84 in 10.0 mi NW 3.5 mph - N/A   Clear
12:15 PM 42.8 °F - 24.8 °F 49% 29.83 in 10.0 mi Calm Calm - N/A   Clear
12:35 PM 39.2 °F 34.2 °F 26.6 °F 61% 29.84 in 10.0 mi NE 6.9 mph - N/A   Clear
12:55 PM 39.2 °F 34.2 °F 26.6 °F 61% 29.83 in 10.0 mi ENE 6.9 mph - N/A   Clear
1:15 PM 39.2 °F 35.0 °F 26.6 °F 61% 29.83 in 10.0 mi NNE 5.8 mph - N/A   Clear
1:35 PM 39.2 °F 35.0 °F 26.6 °F 61% 29.82 in 10.0 mi NNE 5.8 mph - N/A   Clear
1:55 PM 39.2 °F 35.0 °F 26.6 °F 61% 29.81 in 10.0 mi ENE 5.8 mph - N/A   Partly Cloudy
2:15 PM 39.2 °F 35.0 °F 26.6 °F 61% 29.81 in 10.0 mi SE 5.8 mph - N/A   Clear
2:35 PM 39.2 °F 34.2 °F 26.6 °F 61% 29.80 in 10.0 mi East 6.9 mph - N/A   Clear
2:55 PM 39.2 °F 33.0 °F 26.6 °F 61% 29.80 in 10.0 mi East 9.2 mph - N/A   Partly Cloudy
3:15 PM 39.2 °F 33.6 °F 26.6 °F 61% 29.79 in 10.0 mi ESE 8.1 mph - N/A   Clear
3:35 PM 39.2 °F 32.5 °F 26.6 °F 61% 29.78 in 10.0 mi East 10.4 mph - N/A   Clear
3:55 PM 37.4 °F 30.8 °F 26.6 °F 65% 29.78 in 10.0 mi East 9.2 mph - N/A   Clear
4:15 PM 37.4 °F 31.4 °F 28.4 °F 70% 29.77 in 10.0 mi East 8.1 mph - N/A   Clear
4:55 PM 35.6 °F 32.8 °F 28.4 °F 75% 29.78 in 10.0 mi East 3.5 mph - N/A   Clear
5:15 PM 35.6 °F 32.8 °F 28.4 °F 75% 29.78 in 10.0 mi ESE 3.5 mph - N/A   Clear
5:35 PM 35.6 °F - 30.2 °F 81% 29.78 in 10.0 mi Calm Calm - N/A   Clear
5:55 PM 33.8 °F 30.8 °F 30.2 °F 87% 29.78 in 10.0 mi East 3.5 mph - N/A   Clear
6:15 PM 35.6 °F 31.7 °F 30.2 °F 81% 29.77 in 10.0 mi East 4.6 mph - N/A   Clear
6:55 PM 33.8 °F 30.8 °F 28.4 °F 81% 29.77 in 10.0 mi SE 3.5 mph - N/A   Clear
7:15 PM 33.8 °F - 28.4 °F 81% 29.77 in 10.0 mi Calm Calm - N/A   Clear
7:35 PM 33.8 °F - 28.4 °F 81% 29.76 in 10.0 mi Calm Calm - N/A   Clear
7:55 PM 32.0 °F - 28.4 °F 87% 29.75 in 10.0 mi Calm Calm - N/A   Clear
8:15 PM 32.0 °F - 28.4 °F 87% 29.75 in 10.0 mi Calm Calm - N/A   Clear
8:35 PM 32.0 °F - 28.4 °F 87% 29.76 in 10.0 mi Calm Calm - N/A   Clear
8:55 PM 32.0 °F - 28.4 °F 87% 29.74 in 10.0 mi Calm Calm - N/A   Clear
9:15 PM 32.0 °F - 28.4 °F 87% 29.74 in 10.0 mi Calm Calm - N/A   Clear
9:55 PM 32.0 °F - 28.4 °F 87% 29.74 in 10.0 mi Calm Calm - N/A   Clear
10:15 PM 32.0 °F - 30.2 °F 93% 29.73 in 10.0 mi Calm Calm - N/A   Partly Cloudy
10:35 PM 32.0 °F - 30.2 °F 93% 29.72 in 10.0 mi Calm Calm - N/A   Partly Cloudy
10:55 PM 32.0 °F - 30.2 °F 93% 29.73 in 10.0 mi Calm Calm - N/A   Scattered Clouds
11:15 PM 32.0 °F 28.7 °F 30.2 °F 93% 29.69 in 10.0 mi North 3.5 mph - N/A   Scattered Clouds
11:35 PM 32.0 °F - 30.2 °F 93% 29.71 in 10.0 mi Calm Calm - N/A   Mostly Cloudy
11:55 PM 32.0 °F - 30.2 °F 93% 29.73 in 10.0 mi Calm Calm - N/A   Mostly Cloudy